Location: Marsån
(66.4167°N, 22.2833°E)
Time: 11:48:03
(UTC+00:00)

Cosmos 2315 Rocket - Pass Details

Date: 24 February 2024
Orbit: 965 x 1002 km, 82.9° (Epoch: 15 April)

Event Time Altitude Azimuth Distance (km) Brightness Sun altitude
Exits shadow 22:24:29 65° 31° (NNE) 1,098 4.3 -32.9°
Drops below altitude 10° 22:29:55 10° 18° (NNE) 2,792 7.1 -32.9°
Sets 22:32:27 0° 18° (NNE) 3,745 8.0 -32.9°
